Total_Precipitation_Accumulation
0.23 0.11 0.14 0.13 0.11 0.11 0.10 0.12 0.14 0.16 0.14 0.13 0.12 0.10 0.10 0.10 0.09 0.07 0.07 0.08 0.11 0.17 0.22 0.24 0.25 0.29 0.32 0.26 0.18 0.14 0.15 0.14 0.16 0.19 0.22 0.26 0.31 0.37 0.41 0.39 0.45 0.45 0.39
0.23 0.12 0.14 0.14 0.14 0.14 0.11 0.13 0.14 0.14 0.13 0.11 0.10 0.10 0.10 0.09 0.10 0.10 0.10 0.10 0.13 0.16 0.16 0.18 0.21 0.23 0.21 0.15 0.12 0.11 0.12 0.15 0.25 0.37 0.46 0.49 0.50 0.52 0.60 0.62 0.66 0.68 0.43
0.32 0.20 0.15 0.14 0.14 0.14 0.13 0.14 0.14 0.15 0.14 0.13 0.11 0.10 0.10 0.09 0.10 0.10 0.10 0.11 0.15 0.17 0.16 0.15 0.15 0.14 0.13 0.11 0.11 0.13 0.18 0.25 0.44 0.68 1.02 1.23 1.00 0.86 0.81 0.76 0.68 0.55 0.48
0.34 0.29 0.20 0.17 0.15 0.14 0.13 0.14 0.15 0.15 0.14 0.12 0.11 0.10 0.10 0.10 0.11 0.12 0.13 0.15 0.19 0.22 0.20 0.16 0.13 0.11 0.11 0.11 0.12 0.16 0.24 0.34 0.60 0.93 1.62 1.68 1.60 1.47 0.99 0.75 0.64 0.59 0.64
0.30 0.29 0.27 0.21 0.17 0.16 0.15 0.17 0.19 0.20 0.16 0.15 0.14 0.14 0.15 0.13 0.13 0.16 0.20 0.23 0.24 0.24 0.25 0.23 0.19 0.16 0.14 0.12 0.14 0.19 0.26 0.40 0.75 1.14 1.66 2.11 2.37 1.91 1.30 0.95 0.75 0.70 0.75
0.32 0.31 0.26 0.24 0.22 0.23 0.22 0.21 0.22 0.22 0.19 0.19 0.19 0.19 0.18 0.17 0.18 0.21 0.29 0.34 0.32 0.30 0.33 0.32 0.29 0.22 0.16 0.15 0.17 0.22 0.32 0.51 0.74 1.13 1.69 2.34 2.24 1.83 1.46 1.19 0.96 0.88 0.88
0.35 0.38 0.29 0.31 0.31 0.29 0.28 0.25 0.27 0.26 0.26 0.28 0.27 0.24 0.22 0.22 0.24 0.29 0.36 0.39 0.39 0.38 0.38 0.35 0.28 0.20 0.17 0.17 0.20 0.25 0.38 0.56 0.74 1.27 1.77 2.15 1.97 1.64 1.49 1.34 1.23 1.12 1.02
0.36 0.33 0.33 0.34 0.35 0.35 0.33 0.33 0.33 0.33 0.32 0.32 0.31 0.30 0.27 0.26 0.29 0.35 0.39 0.42 0.42 0.39 0.35 0.31 0.26 0.24 0.23 0.23 0.25 0.31 0.43 0.49 0.59 1.10 1.58 1.74 1.48 1.46 1.55 1.41 1.32 1.21 1.11
0.46 0.46 0.48 0.50 0.49 0.50 0.51 0.46 0.44 0.42 0.39 0.36 0.33 0.30 0.27 0.29 0.33 0.38 0.44 0.48 0.47 0.38 0.33 0.31 0.29 0.26 0.25 0.25 0.26 0.30 0.38 0.51 0.58 0.89 1.44 1.75 1.31 1.41 1.61 1.49 1.32 1.24 1.16
0.84 0.85 0.87 0.84 0.75 0.63 0.56 0.54 0.54 0.53 0.48 0.42 0.35 0.30 0.31 0.36 0.43 0.50 0.47 0.49 0.47 0.43 0.40 0.39 0.35 0.29 0.29 0.28 0.29 0.32 0.39 0.43 0.48 0.84 1.35 1.45 1.36 1.64 1.82 1.64 1.40 1.33 1.18
1.47 1.41 1.25 1.12 0.96 0.94 0.84 0.65 0.68 0.65 0.61 0.54 0.49 0.43 0.46 0.59 0.75 0.82 0.67 0.68 0.62 0.58 0.55 0.56 0.50 0.46 0.42 0.37 0.38 0.43 0.46 0.44 0.64 0.99 1.56 1.65 1.80 1.94 2.06 1.89 1.63 1.49 1.37
1.93 1.80 1.48 1.43 1.37 1.24 1.07 0.99 0.96 0.85 0.84 0.76 0.86 0.77 0.85 1.15 1.27 1.11 1.08 0.95 0.93 0.90 0.79 0.78 0.75 0.62 0.55 0.57 0.67 0.66 0.50 0.55 0.75 1.05 1.37 1.62 1.83 2.05 2.13 1.94 1.72 1.58 1.59
1.93 1.71 1.67 1.76 1.66 1.62 1.60 1.51 1.35 1.31 1.26 1.14 1.26 1.24 1.32 1.34 1.27 1.30 1.40 1.32 1.24 1.18 1.21 1.23 1.03 0.86 0.89 0.95 0.95 0.84 0.71 0.78 0.84 1.03 1.34 1.55 1.73 2.11 2.26 2.03 1.81 1.74 1.75
2.16 1.91 1.81 1.74 1.80 1.93 1.87 1.83 1.82 1.79 1.76 1.68 1.64 1.47 1.61 1.68 1.73 1.72 1.85 1.84 1.86 1.84 1.81 1.68 1.50 1.37 1.26 1.23 1.18 1.14 1.01 0.99 1.12 1.33 1.49 1.50 1.60 1.95 2.23 2.22 2.00 1.87 1.81
2.68 2.41 2.15 2.13 2.06 2.06 2.15 2.17 1.95 2.03 2.04 2.17 2.12 1.88 1.94 1.97 2.03 2.22 2.22 2.31 2.26 2.41 2.34 2.13 1.87 1.76 1.62 1.38 1.30 1.31 1.28 1.27 1.32 1.43 1.61 1.67 1.65 1.86 2.19 2.38 2.29 2.16 2.15
2.98 2.77 2.49 2.35 2.32 2.21 2.37 2.54 2.43 2.24 2.25 2.28 2.35 2.22 2.24 2.32 2.43 2.52 2.54 2.60 2.48 2.50 2.53 2.41 2.12 1.97 1.83 1.64 1.44 1.35 1.33 1.48 1.50 1.44 1.65 1.78 1.69 1.70 1.98 2.37 2.56 2.68 2.77
3.21 2.86 2.80 2.58 2.71 2.82 3.03 2.97 2.97 2.89 2.84 2.77 2.68 2.69 2.63 2.67 2.76 2.77 2.94 2.97 2.85 2.77 2.72 2.63 2.47 2.23 2.10 2.00 1.87 1.70 1.57 1.57 1.69 1.76 1.80 1.91 1.96 1.90 2.02 2.27 2.52 2.72 2.88
3.21 3.12 3.13 2.91 2.93 3.10 3.13 3.08 3.13 3.33 3.28 3.17 3.06 3.09 3.00 3.02 3.12 3.28 3.24 3.09 2.97 2.88 2.85 2.96 2.80 2.52 2.44 2.47 2.33 2.01 1.72 1.74 1.84 1.91 1.89 1.97 2.13 2.07 2.12 2.10 2.23 2.45 2.69
3.11 3.02 3.14 3.23 3.05 3.23 3.32 3.32 3.36 3.51 3.57 3.56 3.54 3.43 3.37 3.44 3.46 3.62 3.57 3.35 3.14 3.05 3.06 2.89 2.92 2.83 2.84 2.76 2.36 2.07 1.79 1.74 1.83 1.84 1.88 1.95 2.14 2.24 2.29 2.13 2.19 2.43 2.62
3.13 3.12 3.19 3.43 3.35 3.59 3.68 3.46 3.47 3.51 3.58 3.66 3.79 3.81 3.88 3.95 3.92 3.92 3.79 3.65 3.52 3.37 3.26 3.14 3.12 3.08 2.92 2.78 2.34 2.09 1.86 1.70 1.71 1.79 1.82 1.89 1.95 1.99 2.08 2.13 2.18 2.13 2.32
3.35 3.42 3.38 3.44 3.59 3.69 3.81 3.79 3.95 3.90 3.86 4.09 4.29 4.36 4.46 4.51 4.37 4.32 4.21 4.07 3.84 3.59 3.40 3.24 3.11 2.98 2.77 2.67 2.53 2.26 1.91 1.65 1.67 1.71 1.69 1.76 1.82 1.80 1.85 1.92 2.09 2.04 1.98
3.51 3.62 3.72 3.76 3.74 3.83 4.22 4.64 5.00 5.24 5.28 5.24 5.33 5.33 5.18 5.04 4.93 4.76 4.66 4.44 4.12 3.84 3.56 3.32 3.11 2.86 2.63 2.58 2.58 2.63 2.29 1.95 1.59 1.39 1.42 1.47 1.51 1.52 1.60 1.71 1.75 1.78 1.78
3.31 3.54 3.61 3.85 4.14 4.54 5.05 5.50 5.84 6.11 6.23 6.05 5.80 5.67 5.42 5.19 5.02 4.69 4.44 4.33 4.05 3.66 3.43 3.28 3.09 2.88 2.65 2.52 2.47 2.61 2.48 2.18 1.81 1.57 1.39 1.29 1.34 1.42 1.46 1.56 1.60 1.54 1.50
2.93 3.23 3.49 3.76 4.32 5.13 5.80 6.24 6.58 6.71 6.66 6.50 6.25 5.86 5.38 4.99 4.64 4.35 4.08 3.80 3.53 3.22 2.99 2.82 2.75 2.71 2.61 2.43 2.38 2.23 2.04 1.92 1.93 1.74 1.54 1.43 1.41 1.43 1.38 1.33 1.37 1.39 1.39
2.67 2.95 3.30 3.62 4.27 4.96 5.58 6.18 6.60 6.71 6.62 6.38 5.93 5.42 4.89 4.40 3.98 3.65 3.36 3.10 2.85 2.58 2.37 2.18 2.15 2.27 2.33 2.29 2.28 2.26 2.14 2.03 1.95 1.82 1.70 1.65 1.61 1.55 1.44 1.35 1.32 1.29 1.29
2.24 2.52 2.92 3.30 3.81 4.36 4.75 5.30 5.69 5.85 5.76 5.40 4.89 4.29 3.87 3.57 3.27 2.93 2.65 2.42 2.17 1.93 1.79 1.72 1.69 1.73 1.86 1.97 2.03 2.05 2.05 2.12 2.12 2.04 1.92 1.85 1.81 1.71 1.57 1.47 1.39 1.36 1.32